Location: Songkhla
(7.2000°N, 100.6000°E)
Time: 07:56:08
(UTC+07:00)

SPOT 5 - Pass Details

Date: 16 April 2026
Orbit: 618 x 802 km, 98.0° (Epoch: 17 May)

Event Time Altitude Azimuth Distance (km) Brightness Sun altitude
Exits shadow 20:06:26 26° 22° (NNE) 1,380 4.2 -25.1°
Drops below altitude 10° 20:08:39 10° 6° (N) 2,153 5.4 -25.7°
Sets 20:10:54 0° 360° (N) 3,039 6.3 -26.2°
